Location: Alpha Ridge Park
(39.3209°N, 76.9128°W)
Time: 07:08:30
(UTC-04:00)

SR - Visible Passes

Search period start: 23 May 2019 00:00
Search period end: 02 June 2019 00:00
Orbit: 583 x 873 km, 66.7° (Epoch: 22 May)

Date Brightness Start Highest point End Pass type
(mag) Time Alt. Az. Time Alt. Az. Time Alt. Az.
23 May ? 22:18:27 10° WNW 22:21:34 17° WSW 22:24:48 10° SSW visible
24 May ? 21:27:50 10° NW 21:32:09 36° WSW 21:36:48 10° S visible
26 May ? 21:31:25 10° WNW 21:34:44 19° WSW 21:38:13 10° SSW visible
